Location: Cadeilhan
(42.8161°N, 0.3161°E)
Time: 00:34:16
(UTC+00:00)

Cosmos 2221 - Pass Details

Date: 18 February 2020
Orbit: 593 x 616 km, 82.5° (Epoch: 09 April)

Event Time Altitude Azimuth Distance (km) Brightness Sun altitude
Rises 04:26:11 0° 167° (SSE) 2,818 6.0 -27.5°
Reaches altitude 10° 04:28:28 10° 159° (SSE) 1,923 5.2 -27.0°
Maximum altitude 04:32:24 38° 92° (E) 921 3.9 -26.3°
Drops below altitude 10° 04:36:23 10° 24° (NNE) 1,948 5.5 -25.6°
Sets 04:38:43 0° 17° (NNE) 2,860 6.3 -25.2°
